| time (UTC) | temp F | wind direction | speed MPH | gust MPH | rain 1hr in | rain 24hr in | rain mn in | humidity % | barometer mb |
| 20260505061827 | 56 | 146 | 1.0 | 4.0 | 0.00 | 0.00 | 0.00 | 74 | 1012.3 |
| 20260505061329 | 56 | 163 | 1.0 | 5.0 | 0.00 | 0.00 | 0.00 | 74 | 1012.1 |
| 20260505060828 | 56 | 106 | 1.0 | 6.0 | 0.00 | 0.00 | 0.00 | 74 | 1012.1 |
| 20260505060328 | 56 | 81 | 1.0 | 6.0 | 0.00 | 0.00 | 0.00 | 74 | 1012.0 |
| 20260505055328 | 56 | 135 | 2.0 | 7.0 | 0.00 | 0.00 | 0.00 | 74 | 1012.0 |
| 20260505054324 | 56 | 130 | 1.0 | 6.0 | 0.00 | 0.00 | 0.00 | 74 | 1012.0 |
| 20260505053824 | 56 | 133 | 1.0 | 3.0 | 0.00 | 0.00 | 0.00 | 74 | 1011.8 |
| 20260505053323 | 57 | 138 | 1.0 | 5.0 | 0.00 | 0.00 | 0.00 | 73 | 1011.8 |
| 20260505052823 | 57 | 129 | 1.0 | 6.0 | 0.00 | 0.00 | 0.00 | 73 | 1011.8 |
| 20260505052322 | 57 | 140 | 1.0 | 7.0 | 0.00 | 0.00 | 0.00 | 73 | 1011.9 |
| 20260505051822 | 57 | 192 | 1.0 | 7.0 | 0.00 | 0.00 | 0.00 | 73 | 1011.8 |
| 20260505051323 | 58 | 163 | 1.0 | 6.0 | 0.00 | 0.00 | 0.00 | 72 | 1011.7 |
| 20260505041316 | 61 | 142 | 1.0 | 5.0 | 0.00 | 0.00 | 0.00 | 68 | 1010.9 |
| 20260505040816 | 62 | 161 | 1.0 | 5.0 | 0.00 | 0.00 | 0.00 | 67 | 1010.9 |
| 20260505040317 | 62 | 150 | 1.0 | 5.0 | 0.00 | 0.00 | 0.00 | 66 | 1010.7 |
| 20260505035816 | 62 | 202 | 1.0 | 4.0 | 0.00 | 0.00 | 0.00 | 66 | 1010.7 |
| 20260505034816 | 63 | 150 | 1.0 | 5.0 | 0.00 | 0.00 | 0.00 | 65 | 1010.5 |
| 20260505034316 | 64 | 248 | 1.0 | 6.0 | 0.00 | 0.00 | 0.00 | 64 | 1010.4 |
| 20260505032815 | 65 | 208 | 1.0 | 7.0 | 0.00 | 0.00 | 0.00 | 62 | 1010.3 |
| 20260505032316 | 65 | 178 | 1.0 | 5.0 | 0.00 | 0.00 | 0.00 | 62 | 1010.3 |
| 20260505031314 | 66 | 182 | 1.0 | 6.0 | 0.00 | 0.00 | 0.00 | 61 | 1010.1 |
| 20260505030814 | 67 | 190 | 1.0 | 7.0 | 0.00 | 0.00 | 0.00 | 60 | 1010.1 |
| 20260505030313 | 67 | 175 | 1.0 | 7.0 | 0.00 | 0.00 | 0.00 | 60 | 1010.0 |
| 20260505025812 | 68 | 243 | 1.0 | 4.0 | 0.00 | 0.00 | 0.00 | 59 | 1010.0 |
| 20260505025313 | 69 | 149 | 2.0 | 5.0 | 0.00 | 0.00 | 0.00 | 58 | 1010.0 |
| 20260505024808 | 69 | 233 | 2.0 | 10.0 | 0.00 | 0.00 | 0.00 | 57 | 1009.9 |
| 20260505024307 | 69 | 168 | 2.0 | 10.0 | 0.00 | 0.00 | 0.00 | 56 | 1009.8 |
| 20260505023808 | 70 | 204 | 1.0 | 7.0 | 0.00 | 0.00 | 0.00 | 56 | 1009.8 |
| 20260505023307 | 70 | 144 | 1.0 | 7.0 | 0.00 | 0.00 | 0.00 | 55 | 1009.7 |
| 20260505022808 | 71 | 147 | 1.0 | 6.0 | 0.00 | 0.00 | 0.00 | 54 | 1009.7 |
| 20260505022307 | 71 | 178 | 1.0 | 6.0 | 0.00 | 0.00 | 0.00 | 54 | 1009.7 |
| 20260505021808 | 71 | 193 | 2.0 | 5.0 | 0.00 | 0.00 | 0.00 | 53 | 1009.7 |
| 20260505021309 | 72 | 180 | 1.0 | 5.0 | 0.00 | 0.00 | 0.00 | 52 | 1009.8 |
| 20260505020809 | 72 | 181 | 1.0 | 7.0 | 0.00 | 0.00 | 0.00 | 51 | 1009.8 |
| 20260505020307 | 73 | 230 | 1.0 | 8.0 | 0.00 | 0.00 | 0.00 | 50 | 1009.7 |
| 20260505015808 | 73 | 117 | 1.0 | 8.0 | 0.00 | 0.00 | 0.00 | 50 | 1009.7 |
| 20260505014805 | 73 | 162 | 1.0 | 5.0 | 0.00 | 0.00 | 0.00 | 51 | 1009.7 |
| 20260505014305 | 74 | 207 | 1.0 | 5.0 | 0.00 | 0.00 | 0.00 | 51 | 1009.7 |
| 20260505013758 | 74 | 196 | 1.0 | 7.0 | 0.00 | 0.00 | 0.00 | 51 | 1009.7 |
| 20260505013300 | 74 | 149 | 2.0 | 7.0 | 0.00 | 0.00 | 0.00 | 50 | 1009.7 |
| 20260505012759 | 74 | 182 | 2.0 | 5.0 | 0.00 | 0.00 | 0.00 | 50 | 1009.7 |
| 20260505012259 | 75 | 136 | 2.0 | 6.0 | 0.00 | 0.00 | 0.00 | 50 | 1009.7 |
| 20260505011256 | 75 | 192 | 1.0 | 5.0 | 0.00 | 0.00 | 0.00 | 49 | 1009.7 |
| 20260505010755 | 76 | 144 | 1.0 | 7.0 | 0.00 | 0.00 | 0.00 | 49 | 1009.8 |
| 20260505010257 | 76 | 163 | 2.0 | 7.0 | 0.00 | 0.00 | 0.00 | 49 | 1009.8 |
| 20260505005756 | 76 | 175 | 2.0 | 7.0 | 0.00 | 0.00 | 0.00 | 48 | 1009.8 |
| 20260505005255 | 76 | 211 | 1.0 | 7.0 | 0.00 | 0.00 | 0.00 | 48 | 1009.8 |
| 20260505003755 | 78 | 158 | 1.0 | 4.0 | 0.00 | 0.00 | 0.00 | 47 | 1009.8 |
| 20260505003255 | 78 | 244 | 1.0 | 2.0 | 0.00 | 0.00 | 0.00 | 46 | 1009.8 |
| 20260505002255 | 79 | 196 | 1.0 | 4.0 | 0.00 | 0.00 | 0.00 | 44 | 1009.8 |
| 20260505001755 | 79 | 119 | 1.0 | 4.0 | 0.00 | 0.00 | 0.00 | 44 | 1009.8 |
| 20260505001255 | 79 | 170 | 1.0 | 5.0 | 0.00 | 0.00 | 0.00 | 44 | 1009.9 |
| 20260505000753 | 79 | 234 | 1.0 | 5.0 | 0.00 | 0.00 | 0.00 | 43 | 1009.9 |
| 20260505000247 | 79 | 308 | 1.0 | 4.0 | 0.00 | 0.00 | 0.00 | 43 | 1010.0 |
| 20260504235235 | 79 | 211 | 1.0 | 3.0 | 0.00 | 0.00 | 0.00 | 43 | 1009.9 |
| 20260504234729 | 79 | 132 | 1.0 | 4.0 | 0.00 | 0.00 | 0.00 | 43 | 1010.0 |
| 20260504233717 | 80 | 161 | 1.0 | 5.0 | 0.00 | 0.00 | 0.00 | 42 | 1009.9 |
| 20260504233215 | 79 | 113 | 1.0 | 5.0 | 0.00 | 0.00 | 0.00 | 42 | 1009.9 |
| 20260504232714 | 79 | 245 | 2.0 | 5.0 | 0.00 | 0.00 | 0.00 | 42 | 1009.9 |
| 20260504232213 | 79 | 175 | 2.0 | 7.0 | 0.00 | 0.00 | 0.00 | 42 | 1009.9 |
| 20260504231713 | 80 | 151 | 1.0 | 7.0 | 0.00 | 0.00 | 0.00 | 42 | 1009.8 |
| 20260504231213 | 80 | 186 | 1.0 | 4.0 | 0.00 | 0.00 | 0.00 | 44 | 1009.9 |
| 20260504230216 | 80 | 222 | 2.0 | 6.0 | 0.00 | 0.00 | 0.00 | 42 | 1010.0 |
| 20260504225711 | 80 | 222 | 1.0 | 6.0 | 0.00 | 0.00 | 0.00 | 42 | 1010.1 |
| 20260504225213 | 80 | 154 | 1.0 | 4.0 | 0.00 | 0.00 | 0.00 | 44 | 1010.2 |
| 20260504224711 | 80 | 132 | 1.0 | 4.0 | 0.00 | 0.00 | 0.00 | 44 | 1010.3 |
| 20260504223712 | 79 | 119 | 1.0 | 4.0 | 0.00 | 0.00 | 0.00 | 45 | 1010.4 |
| 20260504222708 | 79 | 188 | 1.0 | 4.0 | 0.00 | 0.00 | 0.00 | 45 | 1010.5 |
| 20260504221704 | 78 | 317 | 1.0 | 3.0 | 0.00 | 0.00 | 0.00 | 43 | 1010.6 |
| 20260504221203 | 78 | 90 | 1.0 | 2.0 | 0.00 | 0.00 | 0.00 | 49 | 1010.6 |
| 20260504220703 | 78 | 84 | 1.0 | 3.0 | 0.00 | 0.00 | 0.00 | 46 | 1010.6 |
| 20260504220203 | 78 | 175 | 1.0 | 3.0 | 0.00 | 0.00 | 0.00 | 46 | 1010.7 |
| 20260504215701 | 78 | 178 | 1.0 | 2.0 | 0.00 | 0.00 | 0.00 | 45 | 1010.7 |
| 20260504215202 | 78 | 162 | 1.0 | 2.0 | 0.00 | 0.00 | 0.00 | 47 | 1010.7 |
| 20260504214701 | 78 | 162 | 1.0 | 2.0 | 0.00 | 0.00 | 0.00 | 47 | 1010.9 |
| 20260504213658 | 77 | 270 | 1.0 | 5.0 | 0.00 | 0.00 | 0.00 | 48 | 1010.9 |
| 20260504213200 | 77 | 190 | 1.0 | 5.0 | 0.00 | 0.00 | 0.00 | 46 | 1011.0 |
| 20260504212201 | 77 | 124 | 2.0 | 6.0 | 0.00 | 0.00 | 0.00 | 47 | 1011.0 |
| 20260504211700 | 76 | 165 | 2.0 | 6.0 | 0.00 | 0.00 | 0.00 | 48 | 1011.1 |
| 20260504211159 | 76 | 138 | 2.0 | 6.0 | 0.00 | 0.00 | 0.00 | 48 | 1011.1 |
| 20260504210659 | 76 | 204 | 2.0 | 6.0 | 0.00 | 0.00 | 0.00 | 49 | 1011.1 |
| 20260504210159 | 75 | 177 | 2.0 | 6.0 | 0.00 | 0.00 | 0.00 | 49 | 1011.2 |
| 20260504205700 | 76 | 292 | 2.0 | 6.0 | 0.00 | 0.00 | 0.00 | 49 | 1011.1 |
| 20260504204659 | 75 | 215 | 1.0 | 5.0 | 0.00 | 0.00 | 0.00 | 49 | 1011.2 |
| 20260504204200 | 75 | 214 | 1.0 | 5.0 | 0.00 | 0.00 | 0.00 | 50 | 1011.3 |
| 20260504203657 | 75 | 230 | 1.0 | 6.0 | 0.00 | 0.00 | 0.00 | 50 | 1011.3 |
| 20260504203155 | 75 | 190 | 1.0 | 6.0 | 0.00 | 0.00 | 0.00 | 50 | 1011.3 |
| 20260504202653 | 75 | 244 | 1.0 | 5.0 | 0.00 | 0.00 | 0.00 | 50 | 1011.4 |
| 20260504202153 | 75 | 248 | 1.0 | 5.0 | 0.00 | 0.00 | 0.00 | 51 | 1011.2 |
| 20260504201653 | 75 | 169 | 2.0 | 6.0 | 0.00 | 0.00 | 0.00 | 51 | 1011.2 |
| 20260504201154 | 75 | 84 | 2.0 | 6.0 | 0.00 | 0.00 | 0.00 | 50 | 1011.2 |
| 20260504200651 | 75 | 250 | 1.0 | 5.0 | 0.00 | 0.00 | 0.00 | 50 | 1011.2 |
| 20260504195651 | 74 | 157 | 2.0 | 7.0 | 0.00 | 0.00 | 0.00 | 52 | 1011.2 |
| 20260504194647 | 74 | 190 | 1.0 | 5.0 | 0.00 | 0.00 | 0.00 | 53 | 1011.3 |
| 20260504194146 | 74 | 171 | 1.0 | 5.0 | 0.00 | 0.00 | 0.00 | 53 | 1011.4 |
| 20260504193646 | 73 | 200 | 2.0 | 6.0 | 0.00 | 0.00 | 0.00 | 52 | 1011.4 |
| 20260504193144 | 73 | 141 | 2.0 | 6.0 | 0.00 | 0.00 | 0.00 | 54 | 1011.4 |
| 20260504191643 | 73 | 169 | 1.0 | 6.0 | 0.00 | 0.00 | 0.00 | 52 | 1011.5 |
| 20260504191143 | 73 | 163 | 1.0 | 6.0 | 0.00 | 0.00 | 0.00 | 53 | 1011.5 |
| 20260504190642 | 72 | 97 | 1.0 | 5.0 | 0.00 | 0.00 | 0.00 | 53 | 1011.6 |
| 20260504190141 | 72 | 157 | 2.0 | 9.0 | 0.00 | 0.00 | 0.00 | 54 | 1011.5 |
| 20260504185640 | 71 | 176 | 3.0 | 9.0 | 0.00 | 0.00 | 0.00 | 53 | 1011.5 |
| 20260504185140 | 71 | 142 | 3.0 | 7.0 | 0.00 | 0.00 | 0.00 | 53 | 1011.6 |
| 20260504184642 | 71 | 194 | 3.0 | 7.0 | 0.00 | 0.00 | 0.00 | 53 | 1011.6 |
| 20260504184141 | 72 | 150 | 2.0 | 7.0 | 0.00 | 0.00 | 0.00 | 52 | 1011.6 |
| 20260504183641 | 71 | 161 | 2.0 | 7.0 | 0.00 | 0.00 | 0.00 | 53 | 1011.6 |
| 20260504183140 | 71 | 151 | 2.0 | 7.0 | 0.00 | 0.00 | 0.00 | 54 | 1011.7 |
| 20260504182641 | 71 | 205 | 2.0 | 5.0 | 0.00 | 0.00 | 0.00 | 54 | 1011.7 |
| 20260504182141 | 71 | 144 | 2.0 | 5.0 | 0.00 | 0.00 | 0.00 | 54 | 1011.6 |
| 20260504181642 | 71 | 189 | 2.0 | 5.0 | 0.00 | 0.00 | 0.00 | 54 | 1011.7 |
| 20260504181141 | 70 | 138 | 2.0 | 5.0 | 0.00 | 0.00 | 0.00 | 53 | 1011.7 |
| 20260504180642 | 70 | 171 | 1.0 | 5.0 | 0.00 | 0.00 | 0.00 | 54 | 1011.7 |
| 20260504175642 | 69 | 124 | 1.0 | 5.0 | 0.00 | 0.00 | 0.00 | 54 | 1011.8 |
| 20260504175140 | 69 | 142 | 1.0 | 4.0 | 0.00 | 0.00 | 0.00 | 55 | 1011.8 |
| 20260504174643 | 69 | 143 | 2.0 | 7.0 | 0.00 | 0.00 | 0.00 | 55 | 1011.8 |
| 20260504174141 | 69 | 182 | 2.0 | 7.0 | 0.00 | 0.00 | 0.00 | 54 | 1011.8 |
| 20260504173139 | 68 | 146 | 2.0 | 5.0 | 0.00 | 0.00 | 0.00 | 54 | 1011.7 |
| 20260504172639 | 68 | 185 | 2.0 | 5.0 | 0.00 | 0.00 | 0.00 | 53 | 1011.7 |
| 20260504172137 | 68 | 169 | 1.0 | 4.0 | 0.00 | 0.00 | 0.00 | 54 | 1011.6 |
| 20260504171137 | 68 | 181 | 1.0 | 5.0 | 0.00 | 0.00 | 0.00 | 53 | 1011.6 |
| 20260504170635 | 68 | 112 | 1.0 | 4.0 | 0.00 | 0.00 | 0.00 | 53 | 1011.7 |
| 20260504170135 | 68 | 144 | 1.0 | 4.0 | 0.00 | 0.00 | 0.00 | 54 | 1011.6 |
| 20260504160132 | 66 | 168 | 1.0 | 4.0 | 0.00 | 0.00 | 0.00 | 54 | 1011.4 |
| 20260504151113 | 60 | 162 | 1.0 | 2.0 | 0.00 | 0.00 | 0.00 | 64 | 1011.0 |
| 20260504150608 | 59 | 161 | 1.0 | 6.0 | 0.00 | 0.00 | 0.00 | 65 | 1011.0 |
| 20260504140549 | 55 | 100 | 0.0 | 0.0 | 0.00 | 0.00 | 0.00 | 72 | 1010.5 |
| 20260504130503 | 54 | 103 | 0.0 | 0.0 | 0.00 | 0.00 | 0.00 | 72 | 1010.0 |
| 20260504100424 | 57 | 102 | 0.0 | 0.0 | 0.00 | 0.00 | 0.00 | 63 | 1009.8 |
| 20260504081851 | 61 | 102 | 0.0 | 0.0 | 0.00 | 0.00 | 0.00 | 59 | 1009.6 |
| 20260504080851 | 60 | 102 | 0.0 | 0.0 | 0.00 | 0.00 | 0.00 | 60 | 1009.7 |
| 20260504080350 | 61 | 102 | 0.0 | 0.0 | 0.00 | 0.00 | 0.00 | 60 | 1009.8 |
| 20260504070345 | 66 | 101 | 0.0 | 0.0 | 0.00 | 0.00 | 0.00 | 52 | 1009.8 |